When you browse on this site, cookies collect data to enhance your experience and personalize the content and advertising you see.
Visit our Privacy Policy to learn more. By continuing to use the site, you agree to this use of cookies and data.
  • In Hungary
  • List of Countries
  • For 7 days
  • Water Temperature
  • Satellite Maps
  • Weather Map
  • News
  • Weather Widgets
  • user-avatar
    Login

    Hourly Weather Krosnica

    Today, 22 April, Monday

    Time Temperature Precipitation Wind Pressure Humidity
    00:00 +9°C° 0 mm 2 mps 747 mmHg 65%
    01:00 +8°C° 0 mm 2 mps 747 mmHg 67%
    02:00 +7°C° 0 mm 2 mps 747 mmHg 72%
    03:00 +7°C° 0 mm 2 mps 747 mmHg 77%
    04:00 +6°C° 0 mm 2 mps 747 mmHg 82%
    05:00 +7°C° 0 mm 3 mps 747 mmHg 80%
    06:00 +8°C° 0 mm 3 mps 747 mmHg 77%
    07:00 +7°C° 0 mm 4 mps 747 mmHg 75%
    08:00 +10°C° 0 mm 4 mps 747 mmHg 66%
    09:00 +11°C° 0 mm 4 mps 747 mmHg 57%
    10:00 +13°C° 0 mm 4 mps 747 mmHg 49%
    11:00 +14°C° 0 mm 4 mps 747 mmHg 45%
    12:00 +15°C° 0 mm 5 mps 747 mmHg 42%
    13:00 +16°C° 0 mm 5 mps 747 mmHg 39%
    14:00 +17°C° 0 mm 6 mps 746 mmHg 40%
    15:00 +17°C° 0 mm 6 mps 746 mmHg 41%
    16:00 +17°C° 0 mm 7 mps 746 mmHg 42%
    17:00 +16°C° 0 mm 6 mps 746 mmHg 47%
    18:00 +15°C° 0 mm 6 mps 746 mmHg 52%
    19:00 +13°C° 0 mm 5 mps 746 mmHg 56%
    20:00 +11°C° 0 mm 6 mps 746 mmHg 56%
    21:00 +11°C° 0 mm 6 mps 746 mmHg 55%
    22:00 +10°C° 0 mm 6 mps 746 mmHg 55%
    23:00 +9°C° 0 mm 6 mps 746 mmHg 56%

    Tomorrow, 23 April, Tuesday

    Time Temperature Precipitation Wind Pressure Humidity
    00:00 +9°C° 0 mm 6 mps 746 mmHg 58%
    01:00 +8°C° 0 mm 5 mps 746 mmHg 60%
    02:00 +8°C° 0 mm 5 mps 745 mmHg 63%
    03:00 +8°C° 0 mm 5 mps 745 mmHg 67%
    04:00 +7°C° 0 mm 5 mps 745 mmHg 70%
    05:00 +7°C° 0.6 mm 5 mps 745 mmHg 74%
    06:00 +8°C° 0.6 mm 5 mps 744 mmHg 78%
    07:00 +8°C° 0.6 mm 6 mps 744 mmHg 83%
    08:00 +10°C° 0.2 mm 6 mps 744 mmHg 74%
    09:00 +13°C° 0.2 mm 6 mps 744 mmHg 65%
    10:00 +16°C° 0.2 mm 6 mps 744 mmHg 57%
    11:00 +16°C° 0.1 mm 7 mps 744 mmHg 54%
    12:00 +17°C° 0.1 mm 7 mps 744 mmHg 51%
    13:00 +18°C° 0.1 mm 7 mps 744 mmHg 48%
    14:00 +17°C° 0.4 mm 6 mps 744 mmHg 54%
    15:00 +16°C° 0.4 mm 5 mps 743 mmHg 61%
    16:00 +14°C° 0.4 mm 5 mps 743 mmHg 68%
    17:00 +14°C° 0.1 mm 5 mps 743 mmHg 71%
    18:00 +13°C° 0.1 mm 5 mps 743 mmHg 74%
    19:00 +12°C° 0.1 mm 5 mps 743 mmHg 76%
    20:00 +10°C° 0.3 mm 5 mps 743 mmHg 79%
    21:00 +10°C° 0.3 mm 6 mps 743 mmHg 81%
    22:00 +10°C° 0.3 mm 6 mps 743 mmHg 83%
    23:00 +10°C° 0.1 mm 6 mps 743 mmHg 83%

    Day after tomorrow, 24 April, Wednesday

    Time Temperature Precipitation Wind Pressure Humidity
    00:00 +9°C° 0.1 mm 5 mps 743 mmHg 82%
    01:00 +9°C° 0.1 mm 5 mps 743 mmHg 82%
    02:00 +9°C° 0 mm 5 mps 742 mmHg 83%
    03:00 +9°C° 0 mm 5 mps 742 mmHg 84%
    04:00 +8°C° 0 mm 5 mps 742 mmHg 84%
    05:00 +9°C° 0 mm 5 mps 743 mmHg 81%
    06:00 +12°C° 0 mm 5 mps 743 mmHg 77%
    07:00 +13°C° 0 mm 5 mps 743 mmHg 74%
    08:00 +15°C° 0 mm 5 mps 743 mmHg 69%
    09:00 +17°C° 0 mm 6 mps 744 mmHg 64%
    10:00 +19°C° 0 mm 6 mps 744 mmHg 59%
    11:00 +20°C° 0 mm 6 mps 744 mmHg 56%
    12:00 +22°C° 0 mm 6 mps 744 mmHg 53%
    13:00 +23°C° 0 mm 6 mps 745 mmHg 50%
    14:00 +22°C° 0.2 mm 6 mps 745 mmHg 53%
    15:00 +21°C° 0.2 mm 6 mps 745 mmHg 55%
    16:00 +21°C° 0.2 mm 6 mps 745 mmHg 58%
    17:00 +20°C° 0 mm 5 mps 745 mmHg 61%
    18:00 +19°C° 0 mm 5 mps 745 mmHg 63%
    19:00 +18°C° 0 mm 4 mps 745 mmHg 66%
    20:00 +17°C° 0 mm 4 mps 745 mmHg 67%
    21:00 +15°C° 0 mm 4 mps 745 mmHg 68%
    22:00 +15°C° 0 mm 4 mps 746 mmHg 70%
    23:00 +14°C° 0 mm 4 mps 745 mmHg 72%

    25 April, Thursday

    Time Temperature Precipitation Wind Pressure Humidity
    00:00 +14°C° 0 mm 4 mps 745 mmHg 74%
    01:00 +14°C° 0 mm 4 mps 745 mmHg 76%
    02:00 +13°C° 0 mm 4 mps 745 mmHg 76%
    03:00 +13°C° 0 mm 4 mps 745 mmHg 77%
    04:00 +13°C° 0 mm 5 mps 745 mmHg 77%
    05:00 +15°C° 0 mm 5 mps 745 mmHg 74%
    06:00 +16°C° 0 mm 5 mps 744 mmHg 70%
    07:00 +17°C° 0 mm 6 mps 744 mmHg 66%
    08:00 +19°C° 0 mm 6 mps 744 mmHg 62%
    09:00 +21°C° 0 mm 6 mps 744 mmHg 58%
    10:00 +22°C° 0 mm 6 mps 744 mmHg 53%
    11:00 +22°C° 0 mm 6 mps 744 mmHg 53%
    12:00 +23°C° 0 mm 6 mps 744 mmHg 53%
    13:00 +23°C° 0 mm 7 mps 744 mmHg 53%
    14:00 +23°C° 0 mm 7 mps 744 mmHg 54%
    15:00 +23°C° 0 mm 6 mps 744 mmHg 55%
    16:00 +23°C° 0 mm 6 mps 744 mmHg 57%
    17:00 +22°C° 0 mm 5 mps 743 mmHg 60%
    18:00 +21°C° 0 mm 5 mps 743 mmHg 64%
    19:00 +20°C° 0 mm 4 mps 743 mmHg 68%
    20:00 +19°C° 0 mm 4 mps 743 mmHg 69%
    21:00 +19°C° 0 mm 4 mps 744 mmHg 70%
    22:00 +18°C° 0 mm 4 mps 744 mmHg 71%
    23:00 +18°C° 0 mm 3 mps 743 mmHg 73%

    26 April, Friday

    Time Temperature Precipitation Wind Pressure Humidity
    00:00 +17°C° 0 mm 3 mps 743 mmHg 75%
    01:00 +17°C° 0 mm 3 mps 743 mmHg 78%
    02:00 +16°C° 0 mm 3 mps 743 mmHg 80%
    03:00 +16°C° 0 mm 3 mps 742 mmHg 81%
    04:00 +14°C° 0 mm 3 mps 742 mmHg 83%
    05:00 +15°C° 0 mm 4 mps 742 mmHg 79%
    06:00 +18°C° 0 mm 4 mps 742 mmHg 74%
    07:00 +19°C° 0 mm 4 mps 742 mmHg 70%
    08:00 +21°C° 0 mm 5 mps 742 mmHg 63%
    09:00 +23°C° 0 mm 6 mps 742 mmHg 57%
    10:00 +26°C° 0 mm 7 mps 742 mmHg 50%
    11:00 +26°C° 0 mm 7 mps 741 mmHg 49%
    12:00 +26°C° 0 mm 7 mps 741 mmHg 47%
    13:00 +27°C° 0 mm 7 mps 741 mmHg 46%
    14:00 +26°C° 0 mm 7 mps 741 mmHg 49%
    15:00 +24°C° 0 mm 7 mps 740 mmHg 53%
    16:00 +23°C° 0 mm 7 mps 740 mmHg 56%
    17:00 +22°C° 0.2 mm 6 mps 741 mmHg 63%
    18:00 +20°C° 0.2 mm 4 mps 741 mmHg 69%
    19:00 +19°C° 0.2 mm 3 mps 741 mmHg 75%
    20:00 +18°C° 0 mm 4 mps 742 mmHg 80%
    21:00 +17°C° 0 mm 4 mps 743 mmHg 84%
    22:00 +14°C° 0 mm 5 mps 743 mmHg 89%
    23:00 +13°C° 0 mm 5 mps 744 mmHg 88%

    27 April, Saturday

    Time Temperature Precipitation Wind Pressure Humidity
    00:00 +13°C° 0 mm 5 mps 744 mmHg 86%
    01:00 +12°C° 0 mm 5 mps 745 mmHg 85%
    02:00 +12°C° 0.1 mm 5 mps 745 mmHg 85%
    03:00 +10°C° 0.1 mm 5 mps 745 mmHg 85%
    04:00 +10°C° 0.1 mm 5 mps 746 mmHg 86%
    05:00 +10°C° 0.1 mm 5 mps 746 mmHg 86%
    06:00 +10°C° 0.1 mm 5 mps 747 mmHg 86%
    07:00 +10°C° 0.1 mm 5 mps 747 mmHg 86%
    08:00 +10°C° 0.2 mm 5 mps 748 mmHg 87%
    09:00 +9°C° 0.2 mm 5 mps 748 mmHg 87%
    10:00 +9°C° 0.2 mm 5 mps 748 mmHg 88%
    11:00 +10°C° 0.1 mm 5 mps 749 mmHg 85%
    12:00 +12°C° 0.1 mm 5 mps 749 mmHg 82%
    13:00 +13°C° 0.1 mm 6 mps 749 mmHg 80%
    14:00 +13°C° 0.1 mm 5 mps 750 mmHg 79%
    15:00 +13°C° 0.1 mm 5 mps 750 mmHg 78%
    16:00 +13°C° 0.1 mm 4 mps 750 mmHg 78%
    17:00 +12°C° 0 mm 4 mps 750 mmHg 78%
    18:00 +12°C° 0 mm 4 mps 750 mmHg 78%
    19:00 +11°C° 0 mm 3 mps 751 mmHg 79%
    20:00 +11°C° 0 mm 3 mps 751 mmHg 80%
    21:00 +10°C° 0 mm 3 mps 751 mmHg 81%
    22:00 +9°C° 0 mm 2 mps 752 mmHg 82%
    23:00 +9°C° 0 mm 2 mps 752 mmHg 83%
    Show more